Flag for Germany Weather past 2 weeks in Greven, North Rhine-Westphalia, Germany

Now
59 °F

Broken clouds.


Feels Like: 57 °F
Forecast: 49 / 58 °F
Wind: 9 mph from Southwest

Location: Muenster / Osnabrueck

Current Time: Apr 25, 2015 at 5:40:29 PM

Latest Report: Apr 25, 2015 at 5:20 PM


Visibility: N/A

Pressure: 29.71 "Hg

Humidity: 68%

Dew point: 48 °F

Location of GrevenLocation

Historic Weather in Greven — Graph

°F

Greven temperature yesterday

Maximum temperature yesterday: 68 °F (at 3:50 PM)
Minimum temperature yesterday: 34 °F (at 5:20 AM)
Average temperature yesterday: 53 °F

Past Weeks' High & Low Weather Summary

 TemperatureHumidityPressure
High73 °F (Apr 15, 2:50 PM)100% (Apr 12, 4:50 AM)30.45 "Hg (Apr 12, 4:50 AM)
Low32 °F (Apr 18, 5:50 AM)28% (Apr 21, 3:20 PM)29.71 "Hg (Apr 25, 4:20 PM)
Average51 °F67%30.17 "Hg
* Reported Apr 10 4:20 PM — Apr 25 4:20 PM, Greven, Weather by CustomWeather, © 2015

Note: Actual official high and low records may vary slightly from our data, if they occured in-between our weather recording intervals... More about our weather records

Advertising

Greven weather history for previous 24 hours

 ConditionsComfort  
Time TempWeatherWind HumidityBarometerVisibility
4:20 PM
Sat, Apr 25
59 °FLight rain. Partly sunny.8 mph72%29.71 "HgN/A
3:50 PM59 °FLight rain. Overcast.7 mph72%29.74 "HgN/A
3:20 PM59 °FLight rain. More clouds than sun.7 mph72%29.74 "HgN/A
2:50 PM57 °FLight rain. More clouds than sun.9 mph82%29.74 "HgN/A
2:20 PM57 °FLight rain. More clouds than sun.9 mph77%29.74 "HgN/A
1:50 PM57 °FLight rain. More clouds than sun.10 mph77%29.74 "HgN/A
1:20 PM55 °FLight rain. More clouds than sun.9 mph82%29.74 "HgN/A
12:50 PM55 °FLight rain. Broken clouds.9 mph82%29.77 "HgN/A
12:20 PM54 °FLight rain. Mostly cloudy.10 mph88%29.77 "HgN/A
11:50 AM52 °FMore clouds than sun.8 mph94%29.77 "Hg5 mi
11:20 AM52 °FLight rain. Mostly cloudy.7 mph94%29.77 "Hg4 mi
10:50 AM52 °FLight rain. Fog.12 mph94%29.77 "Hg2 mi
10:20 AM54 °FLight rain. Fog.6 mph88%29.77 "Hg3 mi
9:50 AM54 °FLight rain. More clouds than sun.5 mph82%29.74 "Hg4 mi
9:20 AM54 °FOvercast.3 mph82%29.74 "Hg4 mi
8:50 AM54 °FLight rain. Overcast.7 mph82%29.77 "Hg4 mi
8:20 AM54 °FOvercast.8 mph77%29.77 "Hg3 mi
7:50 AM54 °FMore clouds than sun.6 mph77%29.77 "Hg3 mi
7:20 AM54 °FMostly cloudy.3 mph77%29.74 "Hg4 mi
6:50 AM54 °FLight rain. Mostly cloudy.3 mph77%29.74 "Hg4 mi
6:20 AM54 °FLight rain. Partly cloudy.3 mph77%29.74 "Hg5 mi
5:20 AM55 °FClear.5 mph67%29.74 "Hg10 mi
4:50 AM54 °FClear.3 mph72%29.74 "Hg10 mi
4:20 AM54 °FClear.5 mph72%29.74 "Hg10 mi
3:50 AM54 °FClear.8 mph72%29.77 "Hg10 mi
3:20 AM55 °FClear.6 mph67%29.77 "Hg10 mi
2:50 AM50 °FClear.3 mph71%29.77 "Hg10 mi
2:20 AM52 °FClear.3 mph67%29.77 "Hg10 mi
1:50 AM52 °FClear.3 mph67%29.77 "Hg10 mi
1:20 AM52 °FClear.3 mph67%29.77 "Hg10 mi
12:50 AM50 °FClear.3 mph71%29.77 "Hg10 mi
12:20 AM50 °FClear.3 mph76%29.77 "Hg10 mi
11:20 PM
Fri, Apr 24
54 °FClear.3 mph67%29.80 "Hg10 mi
10:50 PM55 °FClear.2 mph67%29.80 "Hg10 mi
10:20 PM57 °FClear.3 mph59%29.80 "Hg10 mi
9:50 PM57 °FClear.2 mph59%29.80 "Hg10 mi
9:20 PM57 °FSunny.2 mph55%29.80 "Hg10 mi
8:50 PM61 °FSunny.3 mph48%29.80 "Hg10 mi
8:20 PM63 °FSunny.3 mph45%29.80 "Hg10 mi
7:50 PM64 °FSunny.3 mph40%29.80 "Hg10 mi
7:20 PM66 °FSunny.5 mph35%29.80 "Hg10 mi
6:50 PM66 °FSunny.10 mph35%29.83 "Hg10 mi
6:20 PM68 °FSunny.12 mph33%29.83 "Hg10 mi
5:50 PM68 °FSunny.7 mph33%29.83 "Hg10 mi
5:20 PM68 °FSunny.12 mph33%29.83 "Hg10 mi
Weather by CustomWeather, © 2015

See weather overviewHow to use our weather pages